Location: Charbonni�res
(45.9952°N, 2.9982°E)
Time: 17:51:07
(UTC+00:00)

Cosmos 2228 Rocket - Pass Details

Date: 29 November 2020
Orbit: 618 x 652 km, 82.5° (Epoch: 23 January)

Event Time Altitude Azimuth Distance (km) Brightness Sun altitude
Exits shadow 05:43:34 - 348° (NNW) 2,820 6.2 -14.1°
Reaches altitude 10° 05:45:35 10° 346° (NNW) 2,006 5.4 -13.8°
Maximum altitude 05:49:59 65° 264° (W) 684 3.0 -13.1°
Drops below altitude 10° 05:54:19 10° 183° (S) 1,979 5.8 -12.3°
Sets 05:56:32 0° 181° (S) 2,878 6.7 -12.0°
